Orbital Elements at Epoch 2459000.5 (2020-May-31.0) TDB
Reference: JPL 28 (heliocentric ecliptic J2000)
Element | Value | Uncertainty (1-sigma) | Units |
e | .1653989559826859 | 3.9963e-08 | |
a | 2.690631669639553 | 1.95e-08 | au |
q | 2.24560400054722 | 1.0947e-07 | au |
i | 12.59419076054922 | 4.4791e-06 | deg |
node | 1.533557694866709 | 2.1189e-05 | deg |
peri | 262.4119720954632 | 3.2183e-05 | deg |
M | 243.2851716736181 | 3.196e-05 | deg |
tp | 2459523.140831587480 (2021-Nov-04.64083159) | 0.00014725 | TDB |
period | 1612.054801171856 4.41 | 1.7525e-05 4.798e-08 | d yr |
n | .2233174701866861 | 2.4277e-09 | deg/d |
Q | 3.135659338731886 | 2.2725e-08 | au |
|
| | Orbit Determination Parameters
Additional Information
|